Вернуться в каталог

NOAA 17 DEB

АктивенPO
NORAD 48165·DEBRIS·🇺🇸 United States

Запущен Jun 24, 2002 с Vandenberg Space Force Base

Loading…

Ближайшие Пролёты (ближайшие 24 часа)

TLE

СвежийSource: Space-Track

Эпоха: Sep 14, 2026, 04:18 UTC

1 48165U 02032F   26257.17918085  .00004006  00000-0  53426-3 0  9995
2 48165  98.6744 331.2879 0053426 293.9512  65.6107 14.79275903293532

Отслеживайте NOAA 17 DEB в реальном времени с AllMySat

Download on the App Store